Satellite: NO-44
Catalog number: 26931
Epoch time:      11187.76907285
Element set:    0795
Inclination:      067.0535 deg
RA of node:       293.0696 deg
Eccentricity:    0.0006481
Arg of perigee:   255.9990 deg
Mean anomaly:     104.0387 deg
Mean motion:   14.29666464 rev/day
Decay rate:      -1.11e-06 rev/day^2
Epoch rev:           50972
Checksum:              339

Satellite: SO-50
Catalog number: 27607
Epoch time:      11187.70275348
Element set:     508
Inclination:      064.5588 deg
RA of node:       268.3725 deg
Eccentricity:    0.0074341
Arg of perigee:   317.0357 deg
Mean anomaly:     042.4967 deg
Mean motion:   14.71767388 rev/day
Decay rate:        3.9e-07 rev/day^2
Epoch rev:           45896
Checksum:              347

Satellite: CO-55
Catalog number: 27844
Epoch time:      11187.54283907
Element set:     147
Inclination:      098.7062 deg
RA of node:       195.9624 deg
Eccentricity:    0.0010188
Arg of perigee:   137.7394 deg
Mean anomaly:     222.4582 deg
Mean motion:   14.20822669 rev/day
Decay rate:        9.9e-07 rev/day^2
Epoch rev:           41566
Checksum:              339

Satellite: CO-57
Catalog number: 27848
Epoch time:      11187.70055251
Element set:    0098
Inclination:      098.7113 deg
RA of node:       195.3123 deg
Eccentricity:    0.0010127
Arg of perigee:   141.3827 deg
Mean anomaly:     218.8080 deg
Mean motion:   14.20600587 rev/day
Decay rate:        4.9e-07 rev/day^2
Epoch rev:           41563
Checksum:              294

Satellite: AO-51
Catalog number: 28375
Epoch time:      11188.45922011
Element set:      14
Inclination:      098.0991 deg
RA of node:       165.8390 deg
Eccentricity:    0.0084815
Arg of perigee:   009.1752 deg
Mean anomaly:     351.0964 deg
Mean motion:   14.40766001 rev/day
Decay rate:        5.9e-07 rev/day^2
Epoch rev:           36898
Checksum:              313

Satellite: CP3
Catalog number: 31129
Epoch time:      11187.78246519
Element set:     910
Inclination:      097.8973 deg
RA of node:       210.8624 deg
Eccentricity:    0.0104853
Arg of perigee:   120.1196 deg
Mean anomaly:     241.0408 deg
Mean motion:   14.52510033 rev/day
Decay rate:       3.21e-06 rev/day^2
Epoch rev:           22368
Checksum:              275

Satellite: CO-65
Catalog number: 32785
Epoch time:      11187.72548890
Element set:    0037
Inclination:      097.8485 deg
RA of node:       251.2455 deg
Eccentricity:    0.0016117
Arg of perigee:   110.4207 deg
Mean anomaly:     249.8737 deg
Mean motion:   14.82037659 rev/day
Decay rate:        7.7e-07 rev/day^2
Epoch rev:           17243
Checksum:              330

Satellite: PRISM
Catalog number: 33493
Epoch time:      11188.48623977
Element set:     747
Inclination:      098.1274 deg
RA of node:       317.3953 deg
Eccentricity:    0.0019137
Arg of perigee:   339.5177 deg
Mean anomaly:     020.5268 deg
Mean motion:   14.81767078 rev/day
Decay rate:       6.48e-06 rev/day^2
Epoch rev:           13252
Checksum:              335

Satellite: SOHLA-1
Catalog number: 33496
Epoch time:      11187.86301196
Element set:     456
Inclination:      098.0825 deg
RA of node:       297.4977 deg
Eccentricity:    0.0007653
Arg of perigee:   064.8336 deg
Mean anomaly:     295.3662 deg
Mean motion:   14.69631212 rev/day
Decay rate:       1.26e-06 rev/day^2
Epoch rev:           13137
Checksum:              323

Satellite: TISAT-1
Catalog number: 36799
Epoch time:      11188.54636354
Element set:      21
Inclination:      098.1009 deg
RA of node:       256.9998 deg
Eccentricity:    0.0014603
Arg of perigee:   206.9755 deg
Mean anomaly:     153.0704 deg
Mean motion:   14.80606212 rev/day
Decay rate:       5.35e-06 rev/day^2
Epoch rev:            5332
Checksum:              302

Satellite: STUDSAT
Catalog number: 36801
Epoch time:      11188.75571284
Element set:     208
Inclination:      098.1047 deg
RA of node:       257.0895 deg
Eccentricity:    0.0012935
Arg of perigee:   195.2510 deg
Mean anomaly:     164.8314 deg
Mean motion:   14.80739063 rev/day
Decay rate:      1.397e-05 rev/day^2
Epoch rev:            5334
Checksum:              305

Satellite: RAX
Catalog number: 37223
Epoch time:      11152.36844328
Element set:    0173
Inclination:      071.9713 deg
RA of node:       073.6151 deg
Eccentricity:    0.0021634
Arg of perigee:   311.5989 deg
Mean anomaly:     048.3343 deg
Mean motion:   14.77415682 rev/day
Decay rate:       6.35e-06 rev/day^2
Epoch rev:           02854
Checksum:              291

Satellite: OOREOS
Catalog number: 37224
Epoch time:      11153.29456974
Element set:    0179
Inclination:      071.9726 deg
RA of node:       071.8135 deg
Eccentricity:    0.0020315
Arg of perigee:   307.7637 deg
Mean anomaly:     052.1684 deg
Mean motion:   14.77036357 rev/day
Decay rate:       4.92e-06 rev/day^2
Epoch rev:           02867
Checksum:              309

Satellite: FO-69
Catalog number: 37227
Epoch time:      11188.44951600
Element set:    0074
Inclination:      071.9698 deg
RA of node:       354.5874 deg
Eccentricity:    0.0018546
Arg of perigee:   245.7889 deg
Mean anomaly:     114.1347 deg
Mean motion:   14.76607631 rev/day
Decay rate:       1.85e-06 rev/day^2
Epoch rev:           01231
Checksum:              331

